Theta_e
319 319 320 320 321 320 320 319 319 318 318 317 317 317 316 315 315 314 314 313 313 313 313 312 313 313 311 310 310 309 307 307 307 306 306 307 307 307 307 307 307 307
318 318 319 320 320 320 320 319 319 318 318 317 317 316 316 316 315 313 313 313 312 312 312 312 312 312 312 311 310 309 307 305 305 304 305 306 307 307 307 307 308 307
318 318 318 319 320 320 320 319 319 319 318 318 317 316 316 316 315 313 312 313 312 312 312 312 312 312 312 311 309 307 306 305 304 304 304 305 306 307 307 307 307 307
318 317 317 318 319 319 319 319 319 319 318 318 317 317 316 316 315 314 312 311 312 312 312 312 312 312 311 310 307 306 306 304 303 303 303 304 305 305 306 307 306 306
317 317 316 317 317 318 318 318 319 318 318 318 317 316 316 315 315 314 313 311 311 311 311 311 312 311 310 309 308 306 305 303 302 303 303 303 303 304 305 305 305 305
315 315 315 316 316 317 317 317 318 318 318 318 317 317 315 315 314 314 313 311 310 310 310 310 310 310 309 309 308 307 305 304 303 302 303 303 303 303 303 304 304 303
313 313 314 315 315 316 316 316 317 317 317 317 317 317 315 315 314 314 314 312 310 310 310 309 309 309 309 308 307 307 305 304 303 302 302 302 302 302 302 303 302 301
311 312 314 314 314 315 316 316 316 316 316 316 316 316 315 315 314 313 314 312 310 310 310 309 309 309 309 308 306 306 305 304 303 302 301 301 301 301 301 302 302 301
308 311 313 313 313 314 315 315 315 315 315 315 316 316 315 314 314 314 313 312 310 309 309 309 309 308 308 308 307 307 306 305 304 302 302 301 300 300 300 301 300 300
304 308 312 313 313 313 314 315 315 315 315 315 315 315 314 314 313 313 313 312 310 309 308 307 308 308 308 307 308 310 308 306 304 303 303 303 302 301 301 300 299 298
301 305 310 312 313 313 314 314 315 315 314 314 314 314 314 313 312 312 312 311 310 309 308 307 307 308 308 307 308 310 309 306 305 304 304 303 302 302 302 302 300 298
298 302 308 311 312 312 313 313 314 314 314 314 313 313 313 313 312 312 311 310 310 309 309 308 307 307 308 308 309 309 308 306 305 304 304 303 301 301 303 303 301 300
297 299 304 309 311 311 312 313 313 313 313 313 313 312 311 311 312 312 311 311 309 308 308 308 307 307 308 309 309 308 307 306 304 304 304 304 303 302 302 303 303 302
297 297 300 306 310 310 311 312 312 312 312 312 312 311 311 311 310 310 310 310 310 308 308 308 307 307 307 308 308 307 306 306 305 305 304 304 304 303 303 303 304 304
297 297 297 301 307 309 310 310 311 311 311 311 310 309 310 311 311 310 309 308 309 309 308 307 306 306 306 307 307 306 305 305 305 306 305 303 302 302 303 302 303 304
296 297 296 298 303 307 309 309 310 309 309 309 309 309 308 308 309 310 309 307 307 307 307 306 306 306 306 306 306 306 306 305 305 305 305 303 301 300 301 301 302 303
296 296 296 297 301 305 307 308 308 308 308 307 307 307 307 307 306 307 307 308 307 306 305 305 305 306 307 307 307 307 307 306 305 305 304 303 302 301 301 300 300 302
296 296 296 296 299 303 306 306 307 307 306 306 305 305 306 306 305 304 304 306 306 305 305 305 305 306 307 307 307 307 307 306 306 305 304 302 302 302 303 302 300 300
296 296 296 296 298 302 304 304 304 305 305 305 304 304 305 305 305 304 303 303 304 304 304 304 305 305 306 307 307 307 307 306 305 304 303 302 302 302 302 302 301 300
296 296 296 296 297 300 302 302 303 303 303 304 303 303 303 303 303 303 303 303 303 303 303 303 303 304 305 305 306 307 307 306 305 304 303 303 302 302 302 302 301 301
296 296 296 296 297 299 301 301 302 302 302 302 302 302 302 302 303 302 302 302 303 303 303 302 303 304 304 304 305 305 306 305 305 304 304 303 302 302 302 303 303 302
297 296 296 297 297 298 300 300 301 302 301 301 301 302 302 302 302 303 302 302 302 302 303 303 303 304 304 304 304 305 304 304 303 303 302 301 301 301 301 302 303 303
297 296 296 297 297 298 299 300 300 301 301 301 301 300 301 301 301 302 302 302 301 301 302 303 304 304 305 304 304 305 304 303 302 301 300 300 299 300 300 301 301 302
297 296 297 297 297 298 299 299 300 301 300 300 300 300 300 301 301 301 301 302 302 302 303 303 303 304 304 304 304 305 304 303 301 300 299 298 298 298 298 299 300 301
297 296 297 298 298 298 299 299 300 300 300 300 300 300 300 300 301 301 300 300 301 302 303 303 303 303 303 303 304 304 304 302 300 299 298 297 297 296 296 297 298 299
297 297 297 298 298 298 299 300 300 300 300 300 300 300 300 300 300 300 300 299 300 300 301 302 302 302 302 303 303 303 302 301 300 299 298 297 296 295 295 294 295 296
Wind_Speed
41 43 44 40 37 38 37 36 37 37 39 40 41 43 44 44 44 45 45 45 45 45 44 43 43 43 42 40 39 38 38 39 41 42 44 44 44 41 40 40 38 38
41 42 43 41 38 39 39 38 38 37 38 40 40 42 44 46 46 44 46 47 46 45 45 45 44 43 43 41 41 40 38 38 39 41 43 44 44 43 41 40 39 39
40 41 42 41 39 39 41 40 40 39 38 39 40 41 42 45 46 44 44 47 47 47 47 45 45 44 43 42 41 42 41 39 40 41 42 44 44 43 42 41 40 40
37 39 40 42 40 39 38 38 39 39 38 38 39 41 41 42 44 44 44 45 47 48 48 46 46 45 44 43 41 41 41 40 41 41 41 41 42 43 42 41 40 40
33 36 39 40 40 40 38 37 37 37 37 38 38 40 41 42 44 44 44 45 46 47 47 47 47 46 45 44 42 41 41 40 39 40 40 40 40 41 41 41 40 39
28 31 35 37 39 40 39 39 38 37 36 37 38 39 41 42 44 46 45 45 46 45 45 47 47 46 45 45 43 42 41 40 39 39 40 41 41 41 41 41 41 39
27 30 32 35 38 40 40 39 38 38 37 36 37 38 40 41 43 46 47 47 46 46 45 45 47 47 46 44 43 43 41 40 40 40 40 40 41 41 41 41 41 40
28 30 31 32 35 38 40 39 38 39 39 37 37 38 40 43 45 46 47 46 46 48 49 47 47 48 47 45 43 42 41 40 39 39 39 38 38 41 42 41 41 40
30 29 31 31 33 36 39 40 40 40 40 40 39 39 40 43 46 48 49 47 46 48 49 49 49 47 47 48 47 44 42 41 41 41 41 38 37 40 42 41 40 39
35 30 30 31 33 37 37 38 40 39 39 40 40 39 40 42 44 47 49 48 47 48 47 46 48 49 47 47 49 49 47 45 44 44 43 42 42 42 42 42 41 39
37 34 30 32 33 36 37 36 37 37 37 38 39 39 41 40 40 42 46 48 49 49 48 46 46 48 48 47 48 49 48 46 45 44 44 43 43 43 43 44 43 41
36 36 30 32 33 34 36 36 36 36 35 36 38 40 41 42 42 41 42 45 47 47 49 49 47 48 49 49 49 49 47 45 44 44 44 43 41 41 43 45 45 44
33 36 31 31 34 34 35 36 37 37 36 37 38 39 40 42 44 46 45 45 43 44 47 49 49 49 51 51 50 49 48 45 43 43 43 43 43 42 42 44 45 45
32 36 35 31 33 34 35 37 37 38 38 38 38 40 42 44 44 44 46 47 45 44 45 47 47 47 49 50 49 47 47 47 45 43 41 41 43 43 42 43 44 45
33 35 36 33 32 34 36 37 37 38 39 39 39 40 42 45 46 44 43 44 47 47 47 47 46 46 48 50 50 47 46 46 47 46 44 41 40 42 43 43 44 45
34 35 35 34 32 33 36 38 39 38 38 39 40 40 39 40 44 46 45 45 46 46 47 48 48 49 51 51 51 51 49 48 47 46 46 43 40 40 41 42 44 45
33 35 35 33 31 32 34 37 39 39 38 38 38 40 41 38 38 42 47 49 47 44 44 46 48 51 54 53 53 53 52 50 49 46 45 45 44 42 42 42 43 45
30 33 35 33 29 31 33 35 37 39 39 38 37 38 39 39 38 38 40 44 46 45 44 45 47 50 54 55 55 55 53 52 51 49 46 45 46 46 46 46 45 44
29 31 35 33 28 30 32 33 34 37 38 38 38 38 38 39 40 39 38 39 40 42 43 43 45 47 52 55 56 56 54 51 49 48 48 46 46 46 47 47 47 46
27 29 34 34 28 27 29 30 33 35 37 38 37 37 38 40 40 40 40 40 40 40 39 39 42 44 48 52 54 55 55 53 49 48 47 47 48 48 47 47 48 48
24 27 33 33 28 25 26 29 32 33 34 35 36 37 39 40 41 40 39 39 41 41 39 38 40 42 44 47 50 52 53 52 49 48 47 47 48 49 49 50 50 50
21 25 31 31 26 24 25 28 31 32 33 33 34 36 37 38 40 41 41 39 39 40 40 40 40 41 43 45 47 49 50 49 46 44 45 45 46 47 49 50 51 51
19 22 28 29 25 23 24 27 30 31 32 33 33 32 34 35 37 39 41 42 40 40 40 40 40 42 43 45 48 50 50 48 44 42 41 42 44 47 48 48 50 52
19 20 25 26 24 23 24 27 29 29 30 32 33 33 33 35 36 36 39 42 44 45 45 43 42 44 46 48 50 52 51 48 44 41 40 40 42 44 46 47 49 50
21 18 21 23 23 25 26 27 28 29 30 31 33 33 33 35 36 36 36 39 43 47 48 47 44 44 48 50 50 51 51 48 44 40 38 37 39 39 40 43 46 48
23 18 17 20 22 25 28 29 29 29 29 30 31 31 31 33 35 36 36 37 40 43 45 47 46 44 47 50 50 50 51 48 43 40 38 37 37 38 38 38 41 45
Wind_Direction
223 216 216 215 210 206 205 203 201 198 197 198 200 200 200 202 203 202 201 203 204 204 205 206 207 207 206 206 206 205 206 206 207 206 206 207 208 206 205 204 205 206
225 218 215 214 212 210 208 208 206 202 200 200 201 202 200 201 204 202 200 202 204 204 205 205 207 208 208 208 208 206 205 204 205 205 205 206 206 206 207 208 210 210
226 220 215 212 211 210 208 208 208 207 204 202 201 203 203 202 203 203 201 202 202 204 205 206 207 208 208 208 206 205 204 203 203 204 205 205 206 207 208 209 211 212
227 221 217 212 211 212 209 206 206 206 204 203 202 203 204 203 203 203 203 202 202 203 204 205 207 208 207 207 205 205 206 205 205 204 204 204 206 208 207 208 210 211
233 226 221 215 212 212 212 209 208 206 204 204 203 202 202 203 203 204 203 203 203 202 201 201 205 206 205 204 205 205 206 206 206 205 203 203 205 207 207 207 209 210
245 235 226 218 213 212 213 213 211 209 207 206 203 202 201 201 202 203 203 203 203 202 200 199 202 204 204 203 203 205 205 205 206 206 204 204 205 206 206 207 208 209
256 246 235 224 215 212 212 213 212 210 210 209 206 203 201 200 201 203 204 204 203 203 202 200 201 202 203 202 202 203 204 205 205 204 203 203 204 204 205 207 208 209
272 253 242 232 221 215 213 212 211 211 210 209 209 206 203 202 202 204 206 206 203 203 203 202 201 202 202 202 201 201 202 203 203 203 202 201 200 201 203 205 207 208
296 264 242 233 227 221 216 211 210 210 209 208 209 207 203 202 203 203 205 206 204 203 203 202 201 201 201 201 201 201 201 202 203 203 201 200 200 201 201 202 205 208
313 285 248 229 225 223 219 213 209 208 208 207 206 205 203 202 201 202 204 204 203 204 204 203 201 200 201 202 202 203 204 203 203 203 203 204 205 203 201 201 203 205
322 302 259 229 222 222 219 216 212 208 207 206 205 204 204 202 200 200 202 204 204 203 202 203 203 200 200 202 203 203 205 204 202 202 202 203 203 203 201 201 202 204
325 312 272 234 223 221 218 217 214 211 210 209 207 205 204 204 204 203 202 204 205 203 201 202 203 201 201 203 204 204 204 204 202 201 201 201 202 202 202 202 202 203
321 318 291 249 226 219 217 215 213 212 210 210 209 206 202 202 205 206 207 208 207 204 202 202 202 201 201 202 204 204 203 203 202 201 200 201 203 204 203 202 201 201
312 316 305 271 236 220 214 212 211 211 211 210 209 206 203 202 203 206 207 209 209 208 206 204 203 203 202 202 203 203 202 201 201 200 199 200 201 202 203 203 201 201
307 311 309 288 251 223 212 209 209 209 209 208 207 206 205 203 203 205 206 207 208 208 207 205 203 204 204 202 201 201 200 200 200 199 199 198 198 199 201 202 201 201
304 307 306 294 262 228 211 207 206 205 205 204 205 207 206 204 202 203 206 209 208 206 205 204 202 204 205 203 201 200 199 199 200 200 198 197 196 195 196 199 200 202
301 305 305 294 266 233 214 206 203 201 201 201 201 201 202 203 203 203 204 208 209 207 204 202 202 204 205 205 203 201 201 199 199 199 197 197 197 196 195 197 199 201
296 303 304 294 266 235 217 208 202 199 199 198 195 194 195 198 202 205 205 205 207 209 207 204 203 204 205 205 203 202 202 200 198 198 197 197 197 197 197 197 197 198
293 303 304 293 267 236 218 207 200 196 195 196 195 193 192 195 201 205 207 207 207 209 209 207 206 205 204 204 203 202 201 200 198 197 196 196 196 197 197 196 196 195
292 304 303 292 268 239 219 205 198 195 194 194 193 192 192 195 199 202 204 206 207 209 211 210 208 207 205 204 203 202 201 200 198 197 196 197 198 198 197 196 196 195
291 307 304 289 266 239 219 206 200 197 193 190 190 191 193 195 197 200 202 204 205 207 209 211 210 208 207 205 203 201 200 199 198 196 197 198 199 199 199 199 199 198
291 310 305 287 261 235 218 207 202 199 194 190 189 191 194 195 196 199 202 203 205 205 207 210 211 210 209 207 204 201 198 197 197 195 196 197 198 199 199 199 199 198
288 311 305 283 255 229 217 209 204 201 195 190 189 189 193 195 196 197 199 201 203 204 206 209 212 214 212 209 206 202 198 196 195 195 195 196 197 198 198 198 199 198
282 306 305 282 249 226 219 211 205 202 197 192 190 190 192 195 196 197 199 200 202 205 208 211 213 213 211 208 205 202 199 196 194 193 194 195 195 196 196 197 198 198
275 294 301 283 250 227 219 214 208 203 199 195 194 193 193 194 195 196 198 200 202 205 208 209 210 210 209 207 205 203 199 196 193 192 192 193 192 191 192 195 196 196
269 277 288 281 257 232 220 214 210 204 198 196 196 195 194 194 195 196 197 198 201 203 205 206 207 208 207 206 205 202 199 195 192 191 191 190 189 188 187 190 193 193